FENGYUN 1C DEB, 41006

Orbit data source: Space-Track

FENGYUN 1C DEB, 41006 is space debris in SSO originally from a launch on Mon, 10 May 1999 UTC launched from the Taiyaun Space Center, China (TSC). Fengyun 1C debris stems from the Chinese weather satellite Fengyun-1C, which was intentionally destroyed by a Chinese anti-satellite missile in 2007. This event dramatically increased the amount of space debris, with thousands of trackable fragments posing hazards to satellites and human spaceflight. The Fengyun 1C debris cloud has become a focal point in discussions about space sustainability and the need for international regulations to prevent the creation of new debris.

Loading next visibility...
Identifier
41006, 1999-025EXL
Orbit
SSO
Country
Flag of CNCN / PRC
Related business
Manufacturer
Unknown
Mission
Spacecraft
Bus & Motor
Unknown
Mass
Unknown
Launch date (UTC)
1999-05-10 (27 years ago)
Launch vehicle
Unknown
Launch site
Taiyaun Space Center, China (TSC)
Object type
Payload
Rocket body
Debris
Shape & HBR
Unknown shape, 0.1 m
Radar Cross Section
Small (<0.1 m²)

Expand to show TLE details & history
Last TLE update: 2 days ago

TLE from 2 days ago
0 FENGYUN 1C DEB
1 41006U 99025EXL 26252.68989380  .00002467  00000-0  19006-2 0  9991
2 41006 102.3629 214.4636 0182642  85.0485 277.1483 13.86917267612433
Epoch: 2026-09-09T16:33Z
TLE epoch observation values (Epoch: 2026-09-09T16:33:26.824Z)
Latitude
0.00004°
Longitude
-22.63652°
Altitude
927.963 km
Speed
7.395 km/s
True Right ascension
14h 17m 51s
True Declination
0° 00' 00"
Sunlit
Object was in daylight at epoch
Visualization orbit readout
Latitude
Unknown
Longitude
Unknown
Altitude
Unknown
Speed
Unknown
Apparent Right ascension
Unknown
Apparent Declination
Unknown
Sunlit
N/A
Visualization observer readout
Local Sidereal Time
10:04:53
Azimuth
Unknown
Elevation
Unknown
Doppler factor
Unknown
Orbital elements
Apogee altitude
1,070.465 km
Perigee altitude
803.26 km
Semi-major axis
7,315 km
Eccentricity
0.01826
Inclination
102.3629°
RAAN
214.4636°
Arg. of periapsis
85.0485°
True anomaly
275.06619°
Mean anomaly
277.1483°
Eccentric anomaly
276.10778°
Mean motion
3.46914 °/min
Orbital period
103.77 mins
BSTAR
0.0019006
Loading maneuver chart data...
Computing Atmospheric mass density...

Documentation

Showing up to 5 results
|